[Date Prev][Date Next][Thread Prev][Thread Next] - [Date Index][Thread Index][Author Index]

2 Line ISS Keps 3-20



ISS
1 25544U 98067A   05079.05180556  .00025131  00000-0  19919-3 0   503
2 25544 051.6476 356.9409 0003479 210.8386 340.4649 15.71135795361664
----
Via the sarex mailing list at AMSAT.ORG courtesy of AMSAT-NA.
To unsubscribe, send "unsubscribe sarex" to Majordomo@amsat.org



AMSAT Top AMSAT Home